TimeCST,TemperatureF,Dew PointF,Humidity,Sea Level PressureIn,VisibilityMPH,Wind Direction,Wind SpeedMPH,Gust SpeedMPH,PrecipitationIn,Events,Conditions,WindDirDegrees,DateUTC
12:54 AM,34.0,30.9,89,30.40,10.0,Calm,Calm,-,N/A,,Clear,0,2012-11-16 06:54:00
1:04 AM,33.8,30.2,87,30.39,2.5,Calm,Calm,-,N/A,,Clear,0,2012-11-16 07:04:00
1:12 AM,33.8,30.2,87,30.39,9.0,Calm,Calm,-,N/A,,Clear,0,2012-11-16 07:12:00
1:54 AM,32.0,28.9,88,30.40,3.0,Calm,Calm,-,N/A,,Clear,0,2012-11-16 07:54:00
2:03 AM,32.0,28.4,87,30.40,1.5,Calm,Calm,-,N/A,,Clear,0,2012-11-16 08:03:00
2:05 AM,30.2,28.4,93,30.40,0.8,Calm,Calm,-,N/A,,Mist,0,2012-11-16 08:05:00
2:19 AM,32.0,30.2,93,30.40,1.5,East,3.5,-,N/A,,Partly Cloudy,90,2012-11-16 08:19:00
2:21 AM,30.2,30.2,100,30.40,3.0,East,3.5,-,N/A,,Partly Cloudy,90,2012-11-16 08:21:00
2:54 AM,32.0,30.0,92,30.40,5.0,Calm,Calm,-,N/A,,Clear,0,2012-11-16 08:54:00
3:54 AM,32.0,28.9,88,30.40,7.0,Calm,Calm,-,N/A,,Clear,0,2012-11-16 09:54:00
4:15 AM,32.0,30.2,93,30.40,1.2,Calm,Calm,-,N/A,,Clear,0,2012-11-16 10:15:00
4:23 AM,32.0,30.2,93,30.40,0.2,Calm,Calm,-,N/A,Fog,Fog,0,2012-11-16 10:23:00
4:54 AM,30.9,28.9,92,30.41,1.0,Calm,Calm,-,N/A,,Mist,0,2012-11-16 10:54:00
5:01 AM,30.2,28.4,93,30.40,0.2,Calm,Calm,-,N/A,Fog,Light Freezing Fog,0,2012-11-16 11:01:00
5:37 AM,30.2,28.4,93,30.41,1.0,Calm,Calm,-,N/A,,Clear,0,2012-11-16 11:37:00
5:49 AM,30.2,28.4,93,30.41,0.2,Calm,Calm,-,N/A,Fog,Light Freezing Fog,0,2012-11-16 11:49:00
5:54 AM,30.9,28.9,92,30.42,0.5,Calm,Calm,-,N/A,Fog,Light Freezing Fog,0,2012-11-16 11:54:00
5:59 AM,30.2,28.4,93,30.41,2.0,Calm,Calm,-,N/A,,Clear,0,2012-11-16 11:59:00
6:01 AM,28.4,28.4,100,30.41,4.0,Calm,Calm,-,N/A,,Partly Cloudy,0,2012-11-16 12:01:00
6:09 AM,30.2,28.4,93,30.41,0.8,Calm,Calm,-,N/A,,Mist,0,2012-11-16 12:09:00
6:18 AM,30.2,28.4,93,30.41,0.2,Calm,Calm,-,N/A,Fog,Light Freezing Fog,0,2012-11-16 12:18:00
6:54 AM,30.0,28.0,92,30.43,0.2,Calm,Calm,-,N/A,Fog,Light Freezing Fog,0,2012-11-16 12:54:00
7:44 AM,32.0,30.2,93,30.45,2.0,East,3.5,-,N/A,,Clear,90,2012-11-16 13:44:00
7:54 AM,33.1,32.0,96,30.46,3.0,East,3.5,-,N/A,,Clear,100,2012-11-16 13:54:00
8:54 AM,39.0,36.0,89,30.47,6.0,Calm,Calm,-,0.01,,Clear,0,2012-11-16 14:54:00
9:54 AM,46.0,36.0,68,30.46,8.0,Calm,Calm,-,N/A,,Clear,0,2012-11-16 15:54:00
10:54 AM,50.0,33.1,52,30.46,10.0,Calm,Calm,-,N/A,,Clear,0,2012-11-16 16:54:00
11:54 AM,54.0,30.9,41,30.45,10.0,Calm,Calm,-,N/A,,Clear,0,2012-11-16 17:54:00
12:54 PM,57.0,33.1,40,30.43,10.0,South,4.6,-,N/A,,Clear,170,2012-11-16 18:54:00
1:54 PM,57.9,32.0,37,30.42,10.0,Calm,Calm,-,N/A,,Clear,0,2012-11-16 19:54:00
2:54 PM,57.9,34.0,41,30.41,10.0,East,3.5,-,N/A,,Clear,80,2012-11-16 20:54:00
3:54 PM,57.0,36.0,45,30.42,10.0,ESE,3.5,-,N/A,,Clear,120,2012-11-16 21:54:00
4:54 PM,50.0,36.0,59,30.42,10.0,ESE,5.8,-,N/A,,Clear,110,2012-11-16 22:54:00
5:54 PM,43.0,34.0,71,30.44,10.0,East,6.9,-,N/A,,Clear,100,2012-11-16 23:54:00
6:54 PM,39.0,32.0,76,30.44,10.0,East,8.1,-,N/A,,Clear,100,2012-11-17 00:54:00
7:54 PM,39.9,34.0,79,30.44,10.0,East,4.6,-,N/A,,Clear,90,2012-11-17 01:54:00
8:54 PM,39.0,34.0,82,30.45,10.0,East,3.5,-,N/A,,Clear,100,2012-11-17 02:54:00
9:54 PM,37.0,35.1,93,30.45,7.0,Calm,Calm,-,N/A,,Clear,0,2012-11-17 03:54:00
10:54 PM,37.0,30.9,79,30.46,9.0,East,6.9,-,N/A,,Clear,100,2012-11-17 04:54:00
11:54 PM,37.0,34.0,89,30.46,8.0,East,3.5,-,N/A,,Clear,80,2012-11-17 05:54:00